Regional Weather Roundup
Issued by NWS Jackson, KY

Home | Current Version | Previous Version | Text Only | Print | Product List | Glossary On
Versions: 1 2 3 4 5 6 7 8 9 10 11 12 13 14 15 16 17 18 19 20 21 22 23 24 25 26 27 28
000
ASUS43 KJKL 030310
RWRJKL

EAST KENTUCKY HOURLY WEATHER ROUNDUP
NATIONAL WEATHER SERVICE JACKSON KY
1100 PM EDT MON MAY 02 2016

NOTE: "FAIR" INDICATES FEW OR NO CLOUDS BELOW 12,000 FEET WITH
NO SIGNIFICANT WEATHER AND/OR OBSTRUCTIONS TO VISIBILITY.

* THESE REPORTS ARE NOT UNDER NWS QUALITY CONTROL AND MAY NOT
  REPORT WEATHER SUCH AS PRECIPITATION AND FOG.

KYZ079-080-083-085-087-088-110-112-115-119-120-030400
...EASTERN KENTUCKY...

CITY           SKY/WX    TMP DP  RH WIND       PRES   REMARKS
JACKSON        CLOUDY    58  56  93 CALM      29.93S
LONDON         CLOUDY    60  58  92 SW3       29.95R
SOMERSET*      DRIZZLE   57  57 100 NW3       29.97R
MONTICELLO*    LGT RAIN  60  58  92 N12G17    29.97R FOG
WILLIAMSBURG*  CLOUDY    57  57 100 CALM      29.95S VSB 1/2
MIDDLESBORO*   CLOUDY    59  59  98 CALM      29.95F
HARLAN APT*    CLOUDY    57  55  94 CALM      29.94F
HAZARD APT*    FOG       57  57 100 CALM      29.93F VSB 1
BLACK MTN*       N/A     54  50  87 S5          N/A
PIKE CO APT*   MOCLDY    57  57 100 CALM      29.93S
BIG SANDY APT* CLOUDY    59  59 100 CALM      29.92F
MOREHEAD APT*  CLOUDY    61  59  94 CALM      29.94F
$$

KYZ035-036-041-042-044-050-067-078-099-030400
...CENTRAL KENTUCKY...

CITY           SKY/WX    TMP DP  RH WIND       PRES   REMARKS
MT STERLING*   CLOUDY    59  54  82 N3        29.96S
FLEMING/MASON* CLOUDY    58  51  77 NW6       29.94F
DANVILLE*      CLOUDY    59  55  88 NW3       29.96R
RICHMOND*      CLOUDY    59  55  88 W5        29.95R
LEXINGTON      CLOUDY    59  52  77 CALM      29.95S
FRANKFORT      CLOUDY    59  51  75 NW3       29.94R
LOUISVILLE     CLOUDY    60  49  66 NW6       29.97R
LEBANON*         N/A     57  55  94 CALM      29.95S
BOWLING GREEN  PTCLDY    61  55  81 NW3       29.97R
$$

KYZ091>093-OHZ055-061-077-WVZ005-015-034-035-042-030400
...SOUTHERN OHIO/WEST VIRGINIA...

CITY           SKY/WX    TMP DP  RH WIND       PRES   REMARKS
COVINGTON      CLOUDY    56  51  84 NW5       29.95R
COLUMBUS       CLOUDY    51  47  86 NE7       29.95R
DAYTON         CLOUDY    52  48  86 NE8       29.97R
WILMINGTON     CLOUDY    53  49  86 NE7       29.94R
HUNTINGTON     CLOUDY    61  59  93 SW6       29.91S
CHARLESTON     CLOUDY    62  59  90 SW6       29.92R FOG
PINEVILLE*     CLOUDY    60  57  91 MISG      29.99S
BECKLEY        CLOUDY    56  55  97 SW6       29.96R
$$

VAZ002-007-008-TNZ017-027-036-066-071-030400
...SOUTHWEST VIRGINIA/EAST TENNESSEE...

CITY           SKY/WX    TMP DP  RH WIND       PRES   REMARKS
WISE*          CLOUDY    55  55 100 S6        29.96F
BRISTOL        CLOUDY    60  58  92 CALM      29.96S
MORRISTOWN*    MOCLDY    61  59  94 SE5       29.93F
SEVIERVILLE*   CLEAR     61  61 100 CALM      29.92F
KNOXVILLE      CLOUDY    61  60  97 CALM      29.92F
OAK RIDGE      CLOUDY    61  59  93 CALM      29.94F
CROSSVILLE     CLOUDY    63  57  81 W5        29.98R
NASHVILLE      CLOUDY    60  56  86 CALM      29.98R
$$

...KEY TO REMARKS...
VSB - VISIBILITY IN MILES
WCI - WIND CHILL INDEX
HX  - HEAT INDEX

$$




USA.gov is the U.S. government's official web portal to all federal, state and local government web resources and services.